Logo Prevención de Incendios Logo Prevención de Incendios

C a r g a n d o

OF12306 Feliciano

a
Hora UTC+1 en invierno (a partir del último domingo de octubre) y UTC+2 en verano (a partir del último domingo de marzo)


Fecha Temperatura Humedad Relativa Punto de Rocío Velocidad del Viento Dirección del Viento Presión Atmosférica Precipitación
04/09/2026 00:00 utc 23,9 64 16,6 16,2 254 933,3 0
04/09/2026 00:02 utc 23,9 64 16,7 18,8 261 933,3 0
04/09/2026 00:04 utc 23,9 64 16,6 17,4 261 933,3 0
04/09/2026 00:06 utc 23,9 63 16,6 18 258 933,3 0
04/09/2026 00:08 utc 23,9 63 16,5 16,7 259 933,3 0
04/09/2026 00:10 utc 23,9 63 16,4 16,5 259 933,3 0
04/09/2026 00:12 utc 23,9 64 16,5 16,7 258 933,3 0
04/09/2026 00:14 utc 23,8 63 16,4 16,7 258 933,3 0
04/09/2026 00:16 utc 23,8 63 16,4 18,1 256 933,3 0
04/09/2026 00:18 utc 23,8 63 16,2 18,1 256 933,3 0
04/09/2026 00:20 utc 23,8 63 16,3 18,2 259 933,3 0
04/09/2026 00:22 utc 23,8 63 16,3 18,3 259 933,3 0
04/09/2026 00:24 utc 23,8 62 16,2 18,6 259 933,3 0
04/09/2026 00:26 utc 23,8 62 16 19 257 933,3 0
04/09/2026 00:28 utc 23,8 62 16 18 256 933,3 0
04/09/2026 00:30 utc 23,8 62 16 18,7 256 933,3 0
04/09/2026 00:32 utc 23,9 61 16 19,3 257 933,3 0
04/09/2026 00:34 utc 24 61 16 18,4 256 933,3 0
04/09/2026 00:36 utc 23,9 62 16,1 16,9 255 933,3 0
04/09/2026 00:38 utc 23,8 63 16,2 17,1 254 933,3 0
04/09/2026 00:40 utc 23,8 63 16,3 17,3 251 933,2 0
04/09/2026 00:42 utc 23,8 63 16,3 17 247 933,2 0
04/09/2026 00:44 utc 23,7 63 16,2 16 244 933,3 0
04/09/2026 00:46 utc 23,5 64 16,2 19,2 251 933,3 0
04/09/2026 00:48 utc 23,4 65 16,4 18,2 256 933,3 0
04/09/2026 00:50 utc 23,3 65 16,4 19 253 933,3 0
04/09/2026 00:52 utc 23,4 66 16,6 17,1 258 933,3 0
04/09/2026 00:54 utc 23,4 67 16,9 17,1 255 933,3 0
04/09/2026 00:56 utc 23,4 67 16,7 16,2 252 933,3 0
04/09/2026 00:58 utc 23,4 66 16,8 16,7 250 933,2 0
04/09/2026 01:00 utc 23,4 67 16,8 16,5 250 933,2 0
04/09/2026 01:02 utc 23,4 67 16,8 15,2 249 933,2 0
04/09/2026 01:04 utc 23,4 67 16,9 14,3 252 933,2 0
04/09/2026 01:06 utc 23,5 66 16,9 13,7 245 933,2 0
04/09/2026 01:08 utc 23,5 66 16,8 13,6 250 933,2 0
04/09/2026 01:10 utc 23,5 66 16,9 12,9 244 933,2 0
04/09/2026 01:12 utc 23,6 66 16,8 13,4 243 933,2 0
04/09/2026 01:14 utc 23,6 66 16,8 14,5 244 933,2 0
04/09/2026 01:16 utc 23,6 66 16,9 14,1 247 933,2 0
04/09/2026 01:18 utc 23,7 66 16,9 16,2 255 933,2 0
04/09/2026 01:20 utc 23,7 66 17 17,2 253 933,1 0
04/09/2026 01:22 utc 23,7 64 16,7 16,6 254 933,1 0
04/09/2026 01:24 utc 23,7 64 16,6 16,7 255 933,1 0
04/09/2026 01:26 utc 23,8 63 16,5 17,1 255 933,1 0
04/09/2026 01:28 utc 23,8 63 16,3 16,8 254 933,1 0
04/09/2026 01:30 utc 23,9 62 16,2 17 253 933,1 0
04/09/2026 01:32 utc 23,9 61 16 17,1 256 933,1 0
04/09/2026 01:34 utc 24 61 16 17,3 256 933,1 0
04/09/2026 01:36 utc 24 61 16 16,9 257 933,1 0
04/09/2026 01:38 utc 24 61 16 16,9 258 933,1 0
04/09/2026 01:40 utc 24 62 16,1 17,2 259 933,1 0
04/09/2026 01:42 utc 24 61 16,1 17,2 256 933,1 0
04/09/2026 01:44 utc 23,9 61 16,1 17,6 256 933,1 0
04/09/2026 01:46 utc 23,9 60 15,8 16,8 256 933,1 0
04/09/2026 01:48 utc 23,9 60 15,6 18,1 257 933 0
04/09/2026 01:50 utc 23,9 61 15,8 16,2 252 933 0
04/09/2026 01:52 utc 23,9 61 15,9 16,3 254 933 0
04/09/2026 01:54 utc 23,8 60 15,7 15,8 251 933 0
04/09/2026 01:56 utc 23,8 61 15,7 15 244 933 0
04/09/2026 01:58 utc 23,8 61 15,7 13,6 243 933 0
04/09/2026 02:00 utc 23,8 61 15,7 13 244 933 0
04/09/2026 02:02 utc 23,8 61 15,7 14,4 249 932,9 0
04/09/2026 02:04 utc 23,7 61 15,8 15 253 932,9 0
04/09/2026 02:06 utc 23,7 62 15,9 14,9 256 932,9 0
04/09/2026 02:08 utc 23,6 62 16 15,1 257 932,9 0
04/09/2026 02:10 utc 23,6 63 16,1 14,7 259 932,9 0
04/09/2026 02:12 utc 23,5 63 16,1 15,9 258 932,9 0
04/09/2026 02:14 utc 23,5 63 16 15,5 260 932,9 0
04/09/2026 02:16 utc 23,5 62 15,9 13,6 255 932,9 0
04/09/2026 02:18 utc 23,5 63 15,9 14,9 259 932,9 0
04/09/2026 02:20 utc 23,4 64 16,2 14,6 258 932,9 0
04/09/2026 02:22 utc 23,4 64 16,1 14,7 261 932,9 0
04/09/2026 02:24 utc 23,4 64 16,3 14 259 932,9 0
04/09/2026 02:26 utc 23,4 65 16,3 13,7 260 932,9 0
04/09/2026 02:28 utc 23,4 64 16,4 12,5 256 932,9 0
04/09/2026 02:30 utc 23,4 63 16,2 11 252 932,9 0
04/09/2026 02:32 utc 23,4 64 16 11,3 255 932,9 0
04/09/2026 02:34 utc 23,5 65 16,4 11,6 246 932,9 0
04/09/2026 02:36 utc 23,5 64 16,3 11,7 246 932,8 0
04/09/2026 02:38 utc 23,4 64 16,3 12,2 243 932,8 0
04/09/2026 02:40 utc 23,4 64 16,2 12,6 246 932,8 0
04/09/2026 02:42 utc 23,3 64 16,2 11,7 246 932,8 0
04/09/2026 02:44 utc 23,3 64 16 12,2 247 932,7 0
04/09/2026 02:46 utc 23,3 65 16,2 13,2 248 932,7 0
04/09/2026 02:48 utc 23,3 66 16,5 12,9 248 932,7 0
04/09/2026 02:50 utc 23,3 65 16,4 13,2 248 932,6 0
04/09/2026 02:52 utc 23,3 64 16,1 12,3 250 932,6 0
04/09/2026 02:54 utc 23,3 66 16,3 12,1 246 932,6 0
04/09/2026 02:56 utc 23,3 65 16,5 12,2 253 932,6 0
04/09/2026 02:58 utc 23,4 65 16,6 13,4 242 932,7 0
04/09/2026 03:00 utc 23,3 63 16 13,2 249 932,6 0
04/09/2026 03:02 utc 23,3 64 16,1 13,1 247 932,7 0
04/09/2026 03:04 utc 23,3 63 15,9 13,7 245 932,7 0
04/09/2026 03:06 utc 23,2 63 15,8 12,1 249 932,6 0
04/09/2026 03:08 utc 23,2 64 15,9 12,1 253 932,6 0
04/09/2026 03:10 utc 23,3 64 16 13,2 253 932,6 0
04/09/2026 03:12 utc 23,4 64 16,2 13,3 250 932,6 0
04/09/2026 03:14 utc 23,5 63 16,2 12,5 244 932,6 0
04/09/2026 03:16 utc 23,5 62 15,9 13,4 242 932,6 0
04/09/2026 03:18 utc 23,5 62 15,8 13,9 243 932,6 0
04/09/2026 03:20 utc 23,5 61 15,6 16,8 248 932,6 0
04/09/2026 03:22 utc 23,5 60 15,4 18,7 250 932,6 0
04/09/2026 03:24 utc 23,5 59 15,2 17,9 251 932,6 0
04/09/2026 03:26 utc 23,5 60 15,2 16 249 932,6 0
04/09/2026 03:28 utc 23,4 60 15,2 15,5 250 932,5 0
04/09/2026 03:30 utc 23,5 60 15,2 14,5 250 932,5 0
04/09/2026 03:32 utc 23,5 60 15,3 15,6 252 932,5 0
04/09/2026 03:34 utc 23,6 61 15,3 15,6 251 932,5 0
04/09/2026 03:36 utc 23,6 60 15,5 15,1 253 932,5 0
04/09/2026 03:38 utc 23,7 60 15,4 16,1 251 932,6 0
04/09/2026 03:40 utc 23,7 59 15,3 16,3 253 932,5 0
04/09/2026 03:42 utc 23,7 59 15,3 15,1 250 932,5 0
04/09/2026 03:44 utc 23,7 59 15,2 14,7 252 932,6 0
04/09/2026 03:46 utc 23,8 59 15,4 13,2 253 932,5 0
04/09/2026 03:48 utc 23,8 59 15,3 13,6 256 932,5 0
04/09/2026 03:50 utc 23,8 60 15,4 13,2 254 932,5 0
04/09/2026 03:52 utc 23,8 59 15,4 13,3 254 932,5 0
04/09/2026 03:54 utc 23,9 59 15,3 14,1 257 932,5 0
04/09/2026 03:56 utc 23,9 59 15,3 13,7 256 932,5 0
04/09/2026 03:58 utc 23,9 59 15,3 14,6 259 932,5 0
04/09/2026 04:00 utc 23,8 59 15,3 13,7 264 932,5 0
04/09/2026 04:02 utc 23,8 59 15,3 13,8 263 932,5 0
04/09/2026 04:04 utc 23,9 59 15,4 14,4 261 932,4 0
04/09/2026 04:06 utc 23,9 58 15,3 13,9 259 932,4 0
04/09/2026 04:08 utc 23,9 58 15,2 14,9 261 932,4 0
04/09/2026 04:10 utc 24 58 15,2 14,2 262 932,4 0
04/09/2026 04:12 utc 24 58 15,2 13,7 263 932,4 0
04/09/2026 04:14 utc 24 58 15,2 12,5 257 932,3 0
04/09/2026 04:16 utc 24 58 15,2 12,1 257 932,4 0
04/09/2026 04:18 utc 23,9 58 15,1 12,1 262 932,4 0
04/09/2026 04:20 utc 23,9 58 15,3 12,3 261 932,3 0
04/09/2026 04:22 utc 23,9 59 15,2 12,2 262 932,3 0
04/09/2026 04:24 utc 24 58 15,3 12,7 266 932,3 0
04/09/2026 04:26 utc 24 59 15,4 13,2 264 932,3 0
04/09/2026 04:28 utc 24,1 59 15,4 14 269 932,3 0
04/09/2026 04:30 utc 24,2 58 15,5 13,7 264 932,4 0
04/09/2026 04:32 utc 24,2 58 15,3 12,8 261 932,4 0
04/09/2026 04:34 utc 24,1 57 15,3 11,3 260 932,4 0
04/09/2026 04:36 utc 24 58 15,1 12,9 263 932,4 0
04/09/2026 04:38 utc 24 58 15,4 12,7 264 932,4 0
04/09/2026 04:40 utc 24 59 15,4 12,5 268 932,3 0
04/09/2026 04:42 utc 24 59 15,4 13,7 269 932,3 0
04/09/2026 04:44 utc 24,1 59 15,5 13,4 266 932,3 0
04/09/2026 04:46 utc 24,1 59 15,5 12,5 265 932,3 0
04/09/2026 04:48 utc 24,1 59 15,4 13 262 932,3 0
04/09/2026 04:50 utc 24,1 58 15,5 13,1 259 932,3 0
04/09/2026 04:52 utc 24 58 15,4 13,6 257 932,3 0
04/09/2026 04:54 utc 24,1 59 15,4 13,5 255 932,3 0
04/09/2026 04:56 utc 24 58 15,3 13,1 257 932,3 0
04/09/2026 04:58 utc 24 58 15,3 13,5 259 932,3 0
04/09/2026 05:00 utc 24 59 15,4 13,7 261 932,3 0
04/09/2026 05:02 utc 24,1 58 15,4 14,1 260 932,3 0
04/09/2026 05:04 utc 24,1 58 15,4 13,3 260 932,3 0
04/09/2026 05:06 utc 24,1 58 15,3 13,5 264 932,3 0
04/09/2026 05:08 utc 24,2 58 15,4 13 265 932,2 0
04/09/2026 05:10 utc 24,2 58 15,5 13,2 264 932,2 0
04/09/2026 05:12 utc 24,2 58 15,4 13,3 262 932,2 0
04/09/2026 05:14 utc 24,2 58 15,4 12,9 264 932,2 0
04/09/2026 05:16 utc 24,4 58 15,6 12,2 262 932,2 0
04/09/2026 05:18 utc 24,4 57 15,5 12,3 259 932,2 0
04/09/2026 05:20 utc 24,4 57 15,3 12,1 255 932,2 0
04/09/2026 05:22 utc 24,5 57 15,3 11,7 257 932,2 0
04/09/2026 05:24 utc 24,6 56 15,3 11,4 258 932,2 0
04/09/2026 05:26 utc 24,6 56 15,3 11,4 257 932,2 0
04/09/2026 05:28 utc 24,5 56 15,1 10,7 257 932,2 0
04/09/2026 05:30 utc 24,6 56 15,2 10,4 257 932,2 0
04/09/2026 05:32 utc 24,6 56 15,2 10,5 257 932,2 0
04/09/2026 05:34 utc 24,7 55 15,1 10,2 257 932,2 0
04/09/2026 05:36 utc 24,7 55 15,2 10 253 932,1 0
04/09/2026 05:38 utc 24,8 55 15,1 11,4 254 932,1 0
04/09/2026 05:40 utc 24,7 55 15 13 257 932,2 0
04/09/2026 05:42 utc 24,7 55 14,9 13,3 260 932,2 0
04/09/2026 05:44 utc 24,6 55 14,9 13,6 260 932,2 0
04/09/2026 05:46 utc 24,6 55 14,8 13,8 261 932,2 0
04/09/2026 05:48 utc 24,6 55 14,9 12,7 260 932,2 0
04/09/2026 05:50 utc 24,7 54 14,9 12,9 259 932,2 0
04/09/2026 05:52 utc 24,8 54 14,9 13,2 259 932,2 0
04/09/2026 05:54 utc 24,7 54 14,8 13,6 260 932,2 0
04/09/2026 05:56 utc 24,7 54 14,8 14,2 259 932,2 0
04/09/2026 05:58 utc 24,6 54 14,7 14,3 262 932,2 0
04/09/2026 06:00 utc 24,5 55 14,7 13,7 264 932,2 0
04/09/2026 06:02 utc 24,4 55 14,7 13,5 261 932,2 0
04/09/2026 06:04 utc 24,4 55 14,7 15,1 263 932,2 0
04/09/2026 06:06 utc 24,4 55 14,7 16,1 265 932,2 0
04/09/2026 06:08 utc 24,6 54 14,7 16,4 263 932,2 0
04/09/2026 06:10 utc 24,7 54 14,6 16,1 261 932,2 0
04/09/2026 06:12 utc 24,7 54 14,7 15,8 258 932,2 0
04/09/2026 06:14 utc 24,6 54 14,7 15,9 258 932,2 0
04/09/2026 06:16 utc 24,5 54 14,6 15,9 259 932,2 0
04/09/2026 06:18 utc 24,5 54 14,5 14,6 262 932,2 0
04/09/2026 06:20 utc 24,5 54 14,5 15 266 932,2 0
04/09/2026 06:22 utc 24,5 54 14,5 13,6 265 932,2 0
04/09/2026 06:24 utc 24,5 54 14,5 12,1 270 932,2 0
04/09/2026 06:26 utc 24,7 53 14,6 10,9 269 932,2 0
04/09/2026 06:28 utc 24,8 53 14,5 10,7 263 932,3 0
04/09/2026 06:30 utc 24,8 53 14,5 11,2 255 932,3 0
04/09/2026 06:32 utc 24,6 53 14,5 10,4 264 932,3 0
04/09/2026 06:34 utc 24,5 54 14,5 11,9 261 932,3 0
04/09/2026 06:36 utc 24,6 53 14,5 12,5 262 932,3 0
04/09/2026 06:38 utc 24,6 53 14,5 13,3 265 932,2 0
04/09/2026 06:40 utc 24,7 53 14,4 14,5 269 932,2 0
04/09/2026 06:42 utc 24,9 52 14,3 15,1 272 932,2 0
04/09/2026 06:44 utc 25,1 51 14,3 14,9 274 932,2 0
04/09/2026 06:46 utc 25,3 50 14,3 14 269 932,2 0
04/09/2026 06:48 utc 25,4 50 14,3 13,3 264 932,2 0
04/09/2026 06:50 utc 25,4 50 14,3 13,1 274 932,2 0
04/09/2026 06:52 utc 25,4 50 14,2 11,8 284 932,2 0
04/09/2026 06:54 utc 25,5 50 14,2 11,2 277 932,2 0
04/09/2026 06:56 utc 25,6 49 14,2 10,7 281 932,2 0
04/09/2026 06:58 utc 25,6 49 14,2 10,1 282 932,2 0
04/09/2026 07:00 utc 25,7 49 14,2 8,6 294 932,2 0
04/09/2026 07:02 utc 25,7 49 14,2 8,4 299 932,2 0
04/09/2026 07:04 utc 25,8 49 14,2 9 299 932,2 0
04/09/2026 07:06 utc 25,8 49 14,2 9,3 306 932,2 0
04/09/2026 07:08 utc 25,6 49 14,1 10,1 323 932,2 0
04/09/2026 07:10 utc 25,6 49 14,1 9,8 326 932,2 0
04/09/2026 07:12 utc 25,6 49 14,2 8,7 311 932,2 0
04/09/2026 07:14 utc 25,6 49 14,2 7,9 299 932,2 0
04/09/2026 07:16 utc 25,6 49 14,1 8,4 291 932,2 0
04/09/2026 07:18 utc 25,7 49 14,1 8,4 287 932,2 0
04/09/2026 07:20 utc 25,7 49 14,1 8,9 287 932,2 0
04/09/2026 07:22 utc 25,8 48 14,1 8,6 283 932,3 0
04/09/2026 07:24 utc 25,8 48 14 7,8 275 932,3 0
04/09/2026 07:26 utc 25,8 49 14,1 7,2 270 932,2 0
04/09/2026 07:28 utc 25,7 49 14,1 6,5 272 932,2 0
04/09/2026 07:30 utc 25,7 49 14,1 6,8 271 932,2 0
04/09/2026 07:32 utc 25,7 49 14,1 7 272 932,2 0
04/09/2026 07:34 utc 25,8 48 14,1 7,2 274 932,2 0
04/09/2026 07:36 utc 25,9 48 14,1 7,1 275 932,2 0
04/09/2026 07:38 utc 26,1 47 14 7,1 273 932,2 0
04/09/2026 07:40 utc 26,2 47 14,1 6,3 266 932,2 0
04/09/2026 07:42 utc 26,2 47 14,1 7,4 257 932,2 0
04/09/2026 07:44 utc 26,2 47 14,1 8 253 932,2 0
04/09/2026 07:46 utc 26,2 47 13,9 7,3 250 932,2 0
04/09/2026 07:48 utc 26,2 47 13,9 7 247 932,2 0
04/09/2026 07:50 utc 26,3 46 13,9 7,6 242 932,2 0
04/09/2026 07:52 utc 26,4 46 13,9 7,7 240 932,2 0
04/09/2026 07:54 utc 26,5 46 13,9 7,8 240 932,2 0
04/09/2026 07:56 utc 26,7 45 13,9 8,1 236 932,2 0
04/09/2026 07:58 utc 26,8 45 13,9 8,6 230 932,2 0
04/09/2026 08:00 utc 26,9 45 13,9 8,3 228 932,2 0
04/09/2026 08:02 utc 27 44 13,9 8,4 232 932,2 0
04/09/2026 08:04 utc 27,1 44 13,9 8,4 233 932,2 0
04/09/2026 08:06 utc 27,2 44 13,8 8 234 932,2 0
04/09/2026 08:08 utc 27,3 44 13,8 7 232 932,2 0
04/09/2026 08:10 utc 27,2 44 13,9 6,1 225 932,2 0
04/09/2026 08:12 utc 27,3 44 13,8 5,8 220 932,2 0
04/09/2026 08:14 utc 27,3 43 13,8 4,2 216 932,2 0
04/09/2026 08:16 utc 27,5 43 13,9 4 214 932,2 0
04/09/2026 08:18 utc 27,7 43 13,9 2,7 195 932,2 0
04/09/2026 08:20 utc 27,8 42 13,9 2,8 190 932,2 0
04/09/2026 08:22 utc 28,1 42 13,8 3,9 204 932,2 0
04/09/2026 08:24 utc 28,2 41 13,8 3 202 932,3 0
04/09/2026 08:26 utc 28,4 41 13,9 3,2 195 932,3 0
04/09/2026 08:28 utc 28,5 41 13,9 3,6 185 932,3 0
04/09/2026 08:30 utc 28,6 40 13,8 3,4 178 932,3 0
04/09/2026 08:32 utc 28,8 40 13,7 2,1 216 932,3 0
04/09/2026 08:34 utc 28,9 40 13,8 2,1 166 932,3 0
04/09/2026 08:36 utc 29,2 39 13,9 2,3 214 932,3 0
04/09/2026 08:38 utc 29,4 39 13,9 2,3 212 932,4 0
04/09/2026 08:40 utc 29,5 38 13,8 2,8 236 932,4 0
04/09/2026 08:42 utc 29,5 38 13,8 3 196 932,4 0
04/09/2026 08:44 utc 29,5 38 13,8 3,1 218 932,4 0
04/09/2026 08:46 utc 29,5 39 14 3,3 212 932,4 0
04/09/2026 08:48 utc 29,6 39 14 3 193 932,4 0
04/09/2026 08:50 utc 29,6 39 14,1 3 209 932,4 0
04/09/2026 08:52 utc 29,7 39 14,1 2,4 189 932,4 0
04/09/2026 08:54 utc 29,8 38 14 2,2 196 932,5 0
04/09/2026 08:56 utc 30,1 38 14,2 2,4 180 932,5 0
04/09/2026 08:58 utc 30,4 38 14,5 3,5 98 932,5 0
04/09/2026 09:00 utc 30,6 38 14,6 2,4 110 932,5 0
04/09/2026 09:02 utc 30,6 39 14,9 5,1 93 932,5 0
04/09/2026 09:04 utc 30,7 39 15,1 5,4 105 932,5 0
04/09/2026 09:06 utc 30,6 40 15,3 6,9 104 932,5 0
04/09/2026 09:08 utc 30,5 40 15,5 6,6 96 932,5 0
04/09/2026 09:10 utc 30,4 41 15,5 6,2 100 932,5 0
04/09/2026 09:12 utc 30,3 41 15,6 7,3 96 932,5 0
04/09/2026 09:14 utc 30,1 42 15,7 11,1 79 932,5 0
04/09/2026 09:16 utc 30 42 15,8 9,5 91 932,5 0
04/09/2026 09:18 utc 29,8 43 15,8 12,5 77 932,5 0
04/09/2026 09:20 utc 29,7 43 15,8 12,3 74 932,5 0
04/09/2026 09:22 utc 29,7 43 15,8 12,2 79 932,5 0
04/09/2026 09:24 utc 29,9 43 15,9 12,2 83 932,5 0
04/09/2026 09:26 utc 29,9 43 15,9 14,6 88 932,6 0
04/09/2026 09:28 utc 29,9 43 15,8 13,1 88 932,5 0
04/09/2026 09:30 utc 30 42 15,8 14,6 80 932,5 0
04/09/2026 09:32 utc 29,9 42 15,8 13,4 85 932,5 0
04/09/2026 09:34 utc 30 42 15,7 15,4 76 932,5 0
04/09/2026 09:36 utc 30,1 42 15,8 16,2 80 932,5 0
04/09/2026 09:38 utc 30,1 42 15,8 16,4 85 932,5 0
04/09/2026 09:40 utc 29,9 43 15,8 16,1 79 932,5 0
04/09/2026 09:42 utc 29,7 43 15,8 15,8 73 932,6 0
04/09/2026 09:44 utc 29,8 44 16 14,3 82 932,6 0
04/09/2026 09:46 utc 30 43 16,1 15,9 65 932,6 0
04/09/2026 09:48 utc 29,9 43 16 17,6 70 932,6 0
04/09/2026 09:50 utc 29,9 43 16 17,9 74 932,6 0
04/09/2026 09:52 utc 29,9 43 16 19,6 88 932,6 0
04/09/2026 09:54 utc 29,9 43 16 18,6 74 932,6 0
04/09/2026 09:56 utc 30,1 43 16,1 18,1 78 932,6 0
04/09/2026 09:58 utc 30,3 42 16,1 19,5 77 932,6 0
04/09/2026 10:00 utc 30,2 42 16 19,6 77 932,6 0
04/09/2026 10:02 utc 30,1 42 16 20,7 71 932,6 0
04/09/2026 10:04 utc 30,1 42 15,9 20,6 73 932,6 0
04/09/2026 10:06 utc 30,1 42 15,8 19,6 70 932,6 0
04/09/2026 10:08 utc 30,3 41 15,7 18,1 75 932,6 0
04/09/2026 10:10 utc 30,3 41 15,6 18,8 83 932,6 0
04/09/2026 10:12 utc 30,6 41 15,7 17,4 74 932,6 0
04/09/2026 10:14 utc 30,7 40 15,7 17,8 78 932,6 0
04/09/2026 10:16 utc 30,8 40 15,7 18,5 103 932,6 0
04/09/2026 10:18 utc 30,9 40 15,8 16,6 118 932,6 0
04/09/2026 10:20 utc 30,8 41 16 10,4 121 932,6 0
04/09/2026 10:22 utc 31,2 40 16,1 17,1 116 932,6 0
04/09/2026 10:24 utc 31,3 40 16,1 17,2 123 932,5 0
04/09/2026 10:26 utc 31 40 15,8 16,1 125 932,5 0
04/09/2026 10:28 utc 31 40 15,9 14,2 121 932,5 0
04/09/2026 10:30 utc 31,1 40 15,9 14,2 116 932,5 0
04/09/2026 10:32 utc 31,2 39 15,8 15,8 128 932,5 0
04/09/2026 10:34 utc 31,1 40 15,8 13 113 932,5 0
04/09/2026 10:36 utc 31,4 40 16,2 15,5 131 932,5 0
04/09/2026 10:38 utc 31,6 40 16,1 16,2 115 932,5 0
04/09/2026 10:40 utc 31,5 39 16,2 11,3 119 932,5 0
04/09/2026 10:42 utc 31,2 40 15,9 16,1 117 932,5 0
04/09/2026 10:44 utc 31,3 40 16,1 14,2 128 932,4 0
04/09/2026 10:46 utc 31,4 40 16,2 16,7 129 932,5 0
04/09/2026 10:48 utc 31,1 41 16,2 16,3 134 932,4 0
04/09/2026 10:50 utc 31,1 41 16,3 17,2 136 932,4 0
04/09/2026 10:52 utc 31,5 40 16,3 14,2 149 932,4 0
04/09/2026 10:54 utc 31,4 40 16,1 13,5 124 932,3 0
04/09/2026 10:56 utc 31,3 40 16,2 13,3 132 932,3 0
04/09/2026 10:58 utc 31,6 40 16,2 14,4 105 932,3 0
04/09/2026 11:00 utc 31,8 40 16,3 16,2 114 932,3 0
04/09/2026 11:02 utc 31,8 39 16,3 18,4 140 932,2 0
04/09/2026 11:04 utc 31,8 39 16,3 12,1 127 932,2 0
04/09/2026 11:06 utc 32,1 39 16,3 15,9 97 932,2 0
04/09/2026 11:08 utc 32,1 39 16,4 17,4 113 932,2 0
04/09/2026 11:10 utc 31,7 40 16,3 18,4 106 932,2 0
04/09/2026 11:12 utc 31,7 40 16,4 20,2 109 932,2 0
04/09/2026 11:14 utc 31,3 41 16,3 17,4 103 932,1 0
04/09/2026 11:16 utc 31,3 41 16,4 18,9 120 932,1 0
04/09/2026 11:18 utc 31,5 41 16,6 18,5 117 932,1 0
04/09/2026 11:20 utc 31,4 41 16,5 21,5 135 932,1 0
04/09/2026 11:22 utc 31,4 41 16,5 13,9 117 932,1 0
04/09/2026 11:24 utc 31,7 41 16,5 19,1 137 932,1 0
04/09/2026 11:26 utc 31,6 41 16,8 17,1 118 932,1 0
04/09/2026 11:28 utc 31,9 40 16,8 16,5 136 932,1 0
04/09/2026 11:30 utc 31,9 41 16,4 17,8 121 932 0
04/09/2026 11:32 utc 31,9 41 17,1 20,8 132 932 0
04/09/2026 11:34 utc 31,8 43 17,2 18,9 109 932 0
04/09/2026 11:36 utc 31,7 43 17,5 26,4 119 931,9 0
04/09/2026 11:38 utc 31,4 43 17,5 19,9 142 931,9 0
04/09/2026 11:40 utc 31,4 44 17,4 17,7 103 931,9 0
04/09/2026 11:42 utc 31,6 44 17,7 22,4 122 931,9 0
04/09/2026 11:44 utc 31,6 44 17,8 19,4 114 931,9 0
04/09/2026 11:46 utc 31,6 43 17,7 23,2 129 931,9 0
04/09/2026 11:48 utc 31,3 44 17,4 18,9 119 931,9 0
04/09/2026 11:50 utc 31,6 44 17,7 22,8 137 931,9 0
04/09/2026 11:52 utc 31,6 43 17,5 19,2 136 931,9 0
04/09/2026 11:54 utc 31,7 43 17,6 16,7 126 931,9 0
04/09/2026 11:56 utc 31,8 43 17,7 20,1 107 931,9 0
04/09/2026 11:58 utc 31,7 43 17,7 25,6 104 931,8 0
04/09/2026 12:00 utc 31,2 44 17,6 24,2 112 931,8 0
04/09/2026 12:02 utc 31,1 44 17,6 26,3 104 931,8 0
04/09/2026 12:04 utc 31,2 44 17,4 24,9 110 931,7 0
04/09/2026 12:06 utc 31,6 43 17,5 20,2 112 931,8 0
04/09/2026 12:08 utc 31,8 42 17,4 24 125 931,7 0
04/09/2026 12:10 utc 31,9 42 17,3 20,4 102 931,8 0
04/09/2026 12:12 utc 31,7 45 18 23,1 118 931,7 0
04/09/2026 12:14 utc 31,4 45 18,2 27 115 931,7 0
04/09/2026 12:16 utc 31,4 44 17,9 22,8 119 931,7 0
04/09/2026 12:18 utc 31,6 43 17,6 27,3 120 931,7 0
04/09/2026 12:20 utc 31,6 44 17,6 23,5 124 931,7 0
04/09/2026 12:22 utc 31,8 44 17,8 18,5 123 931,7 0
04/09/2026 12:24 utc 32 44 18,1 20,6 128 931,7 0
04/09/2026 12:26 utc 32,1 44 18,3 26,6 118 931,7 0
04/09/2026 12:28 utc 31,9 45 18,3 23,8 120 931,7 0
04/09/2026 12:30 utc 31,7 45 18,4 23,1 134 931,7 0
04/09/2026 12:32 utc 31,8 45 18,3 25,5 117 931,7 0
04/09/2026 12:34 utc 31,6 45 18,4 31,7 135 931,6 0
04/09/2026 12:36 utc 31,4 44 18 23,8 138 931,6 0
04/09/2026 12:38 utc 31,5 46 18,1 21 124 931,7 0
04/09/2026 12:40 utc 31,8 46 18,8 23,2 120 931,6 0
04/09/2026 12:42 utc 31,7 48 19,1 28,5 104 931,6 0
04/09/2026 12:44 utc 31,1 51 19,5 28,7 105 931,6 0
04/09/2026 12:46 utc 30,8 51 19,6 23,9 112 931,6 0
04/09/2026 12:48 utc 30,7 52 19,6 29,7 105 931,6 0
04/09/2026 12:50 utc 30,5 52 19,6 28,6 108 931,6 0
04/09/2026 12:52 utc 30,7 52 19,6 25,5 106 931,7 0
04/09/2026 12:54 utc 30,8 51 19,6 24,1 109 931,7 0
04/09/2026 12:56 utc 30,7 52 19,5 25,4 113 931,7 0
04/09/2026 12:58 utc 31 51 19,8 27,4 112 931,6 0
04/09/2026 13:00 utc 30,6 52 19,6 29,1 111 931,6 0
04/09/2026 13:02 utc 30,2 54 19,8 28,6 107 931,5 0
04/09/2026 13:04 utc 30,3 54 20 28,5 111 931,5 0
04/09/2026 13:06 utc 30,2 54 19,8 25,1 109 931,5 0
04/09/2026 13:08 utc 30,4 54 20 29,4 116 931,5 0
04/09/2026 13:10 utc 30,3 53 19,9 29,2 124 931,4 0
04/09/2026 13:12 utc 30,2 53 19,7 28,9 112 931,4 0
04/09/2026 13:14 utc 30,2 54 19,7 28,5 114 931,4 0
04/09/2026 13:16 utc 30,2 55 19,9 24,8 117 931,4 0
04/09/2026 13:18 utc 30,4 54 20,1 26,9 120 931,4 0
04/09/2026 13:20 utc 30,5 53 19,9 30,7 113 931,4 0
04/09/2026 13:22 utc 30,3 54 19,9 29,9 101 931,3 0
04/09/2026 13:24 utc 30,2 56 20,3 29,3 103 931,3 0
04/09/2026 13:26 utc 30,1 56 20,3 33,6 82 931,3 0
04/09/2026 13:28 utc 29,5 58 20,3 35,9 80 931,3 0
04/09/2026 13:30 utc 29,1 59 20,3 33,5 85 931,3 0
04/09/2026 13:32 utc 29 59 20,3 28,5 104 931,4 0
04/09/2026 13:34 utc 29,3 58 20,3 27,9 112 931,4 0
04/09/2026 13:36 utc 29,3 58 20,1 32 103 931,4 0
04/09/2026 13:38 utc 29 59 20,2 30 111 931,4 0
04/09/2026 13:40 utc 29 60 20,2 29,1 104 931,4 0
04/09/2026 13:42 utc 29,1 59 20,4 31,6 101 931,3 0
04/09/2026 13:44 utc 29,1 59 20,2 28,3 104 931,3 0
04/09/2026 13:46 utc 29,3 59 20,2 31,8 99 931,3 0
04/09/2026 13:48 utc 29,4 58 20,4 28,8 107 931,3 0
04/09/2026 13:50 utc 29,4 58 20,3 30,2 113 931,3 0
04/09/2026 13:52 utc 29,1 59 20,2 29,5 114 931,3 0
04/09/2026 13:54 utc 28,9 59 20,2 30 107 931,3 0
04/09/2026 13:56 utc 28,9 59 20,2 30,7 104 931,3 0
04/09/2026 13:58 utc 29,1 59 20,2 31,4 102 931,1 0
04/09/2026 14:00 utc 29 59 20,1 29,5 104 931,1 0
04/09/2026 14:02 utc 29,1 59 20,2 30,4 104 931,1 0
04/09/2026 14:04 utc 29,2 59 20,3 32,9 108 931,1 0
04/09/2026 14:06 utc 29,1 58 20,2 31,9 101 931,1 0
04/09/2026 14:08 utc 28,9 59 20 33,6 101 931 0
04/09/2026 14:10 utc 28,9 59 20 29,9 105 931,1 0
04/09/2026 14:12 utc 29,1 57 19,9 32,5 102 931,1 0
04/09/2026 14:14 utc 29 54 19,1 32,5 100 931 0
04/09/2026 14:16 utc 29,1 54 18,8 30,9 103 931,1 0
04/09/2026 14:18 utc 29,2 54 19,1 32,9 92 931 0
04/09/2026 14:20 utc 29,2 54 19 29,6 95 931,1 0
04/09/2026 14:22 utc 29,3 54 19 29,8 102 931,1 0,02
04/09/2026 14:24 utc 29,4 53 18,9 29,9 115 931,1 0
04/09/2026 14:26 utc 29,5 51 18,4 30,4 118 931,1 0
04/09/2026 14:28 utc 29,6 52 18,6 28,1 113 931 0
04/09/2026 14:30 utc 29,7 51 18,5 29,4 123 931 0
04/09/2026 14:32 utc 29,8 52 18,5 28,7 122 931 0
04/09/2026 14:34 utc 29,6 52 19 29 116 931 0
04/09/2026 14:36 utc 29,6 52 18,6 29,8 116 931 0
04/09/2026 14:38 utc 29,6 52 18,6 25,9 111 931 0
04/09/2026 14:40 utc 29,6 52 19 28,1 111 931 0
04/09/2026 14:42 utc 29,6 53 18,8 27,2 107 931,1 0
04/09/2026 14:44 utc 29,5 53 19,1 29,7 110 931 0
04/09/2026 14:46 utc 29,4 53 18,9 28,7 116 930,9 0
04/09/2026 14:48 utc 29,1 55 19 25,9 113 930,9 0
04/09/2026 14:50 utc 29,2 55 19,2 25,3 118 930,9 0
04/09/2026 14:52 utc 29,4 55 19,2 26 115 930,9 0
04/09/2026 14:54 utc 29,3 55 19,3 26,5 115 930,9 0
04/09/2026 14:56 utc 29,5 54 19,3 27,2 114 931 0
04/09/2026 14:58 utc 29,6 52 19 27,5 118 931,1 0
04/09/2026 15:00 utc 29,4 53 18,7 25,3 120 931,1 0
04/09/2026 15:02 utc 29,4 54 19,1 27,4 97 931,1 0
04/09/2026 15:04 utc 29,4 54 19,1 26,9 101 931,1 0
04/09/2026 15:06 utc 29,3 54 19,2 25,9 109 931,1 0
04/09/2026 15:08 utc 29,3 54 19,1 24,6 105 931,1 0
04/09/2026 15:10 utc 29,2 54 19,1 23,3 111 931,1 0
04/09/2026 15:12 utc 29,1 54 19 24,4 123 931,1 0
04/09/2026 15:14 utc 29,1 54 18,7 20,5 126 931,2 0
04/09/2026 15:16 utc 29,2 53 18,8 25,4 125 931,2 0
04/09/2026 15:18 utc 29,3 53 18,8 25,1 126 931,1 0
04/09/2026 15:20 utc 29,3 53 18,7 26,3 131 931,1 0
04/09/2026 15:22 utc 29,2 53 18,8 24,6 130 931,1 0
04/09/2026 15:24 utc 29,2 54 18,8 22,3 126 931,1 0
04/09/2026 15:26 utc 29,3 53 18,8 25,4 125 931,1 0
04/09/2026 15:28 utc 29,3 53 18,6 22,9 129 931,2 0
04/09/2026 15:30 utc 29,5 53 18,7 22 122 931,2 0
04/09/2026 15:32 utc 29,5 52 18,7 24,9 119 931,1 0
04/09/2026 15:34 utc 29,3 53 18,7 24,8 116 931,1 0
04/09/2026 15:36 utc 29,3 52 18,6 23,5 115 931,1 0
04/09/2026 15:38 utc 29,4 52 18,5 26,9 105 931,1 0
04/09/2026 15:40 utc 29,2 52 18,5 28,3 107 931,1 0
04/09/2026 15:42 utc 29 53 18,4 29,2 106 931,1 0,01
04/09/2026 15:44 utc 28,9 52 18,3 28,2 111 931,1 0
04/09/2026 15:46 utc 28,8 52 18 24,7 119 931,2 0
04/09/2026 15:48 utc 28,9 52 17,9 18,1 122 931,3 0
04/09/2026 15:50 utc 29,1 51 18 21,4 102 931,3 0
04/09/2026 15:52 utc 29,2 52 18,1 22,9 109 931,2 0
04/09/2026 15:54 utc 29,1 52 18,3 18,3 102 931,3 0
04/09/2026 15:56 utc 29,1 51 18,2 21 121 931,3 0
04/09/2026 15:58 utc 29,2 52 18,1 20,8 125 931,3 0
04/09/2026 16:00 utc 29,1 52 18,4 19,8 102 931,3 0
04/09/2026 16:02 utc 29,1 52 18,1 20 108 931,3 0
04/09/2026 16:04 utc 29,1 52 18,3 19,5 106 931,3 0
04/09/2026 16:06 utc 29,2 51 18,1 20,1 98 931,3 0
04/09/2026 16:08 utc 29,3 50 17,9 24,1 111 931,3 0
04/09/2026 16:10 utc 29,2 50 17,9 20,9 106 931,3 0
04/09/2026 16:12 utc 29,1 50 17,6 18,5 97 931,3 0
04/09/2026 16:14 utc 29,3 49 17,7 24,1 105 931,3 0
04/09/2026 16:16 utc 29,1 49 17,4 20,9 112 931,3 0
04/09/2026 16:18 utc 29 50 17,4 22,2 101 931,3 0
04/09/2026 16:20 utc 28,9 49 17,2 24,5 107 931,3 0
04/09/2026 16:22 utc 28,9 49 17,1 18,5 104 931,3 0
04/09/2026 16:24 utc 28,9 48 17 21 113 931,4 0
04/09/2026 16:26 utc 28,9 48 16,8 22,5 114 931,4 0
04/09/2026 16:28 utc 28,9 48 16,7 21,6 101 931,4 0
04/09/2026 16:30 utc 28,8 48 16,7 23 106 931,4 0
04/09/2026 16:32 utc 28,7 49 16,9 20,3 109 931,5 0
04/09/2026 16:34 utc 28,6 49 16,9 19,3 112 931,4 0
04/09/2026 16:36 utc 28,6 49 17 19,2 109 931,4 0
04/09/2026 16:38 utc 28,5 50 17 18,5 109 931,4 0
04/09/2026 16:40 utc 28,5 50 17 18,9 94 931,4 0
04/09/2026 16:42 utc 28,4 50 17 21,1 100 931,4 0
04/09/2026 16:44 utc 28,3 51 17,2 21,9 102 931,4 0
04/09/2026 16:46 utc 28,2 51 17,3 16,9 104 931,5 0
04/09/2026 16:48 utc 28,1 51 17 17,3 104 931,5 0
04/09/2026 16:50 utc 28,1 51 17,1 15,8 107 931,5 0
04/09/2026 16:52 utc 28,1 51 17,1 15,1 108 931,5 0
04/09/2026 16:54 utc 28,1 52 17,2 16,2 107 931,5 0
04/09/2026 16:56 utc 28 52 17,3 17,9 104 931,5 0
04/09/2026 16:58 utc 28,1 52 17,3 19,7 103 931,5 0
04/09/2026 17:00 utc 28,1 52 17,3 19,3 103 931,5 0
04/09/2026 17:02 utc 28,1 51 17,2 18,2 93 931,5 0
04/09/2026 17:04 utc 28 51 17 18,6 100 931,4 0
04/09/2026 17:06 utc 28 52 17,1 15,2 101 931,4 0
04/09/2026 17:08 utc 28 51 17,1 17,6 99 931,4 0
04/09/2026 17:10 utc 28 52 17,1 17,4 100 931,5 0
04/09/2026 17:12 utc 27,9 53 17,2 17 104 931,5 0
04/09/2026 17:14 utc 27,9 53 17,5 16,6 111 931,5 0
04/09/2026 17:16 utc 27,9 53 17,4 16,3 119 931,5 0
04/09/2026 17:18 utc 27,9 52 17,3 15,6 119 931,5 0
04/09/2026 17:20 utc 27,9 52 17,1 16,7 121 931,5 0
04/09/2026 17:22 utc 27,9 52 17 16,2 118 931,5 0
04/09/2026 17:24 utc 27,9 51 17 15,7 121 931,5 0
04/09/2026 17:26 utc 27,9 52 17 14,6 125 931,5 0
04/09/2026 17:28 utc 27,9 52 17 15,6 129 931,5 0
04/09/2026 17:30 utc 27,9 52 17,1 15,7 129 931,5 0
04/09/2026 17:32 utc 27,8 52 17 16,1 130 931,6 0
04/09/2026 17:34 utc 27,8 52 17,1 15,5 129 931,6 0
04/09/2026 17:36 utc 27,7 53 17,1 14,1 131 931,6 0
04/09/2026 17:38 utc 27,7 53 17,2 13,8 124 931,6 0
04/09/2026 17:40 utc 27,7 53 17,2 15 128 931,6 0
04/09/2026 17:42 utc 27,6 53 17,2 14,9 130 931,5 0
04/09/2026 17:44 utc 27,6 53 17,1 14,5 131 931,5 0
04/09/2026 17:46 utc 27,6 53 17,1 12,6 127 931,6 0
04/09/2026 17:48 utc 27,5 53 17,1 11,3 129 931,7 0
04/09/2026 17:50 utc 27,4 53 17,1 9,5 129 931,7 0
04/09/2026 17:52 utc 27,4 53 17 8,2 151 931,7 0
04/09/2026 17:54 utc 27,4 53 17,1 8,3 143 931,7 0
04/09/2026 17:56 utc 27,4 53 17,1 9,6 128 931,7 0
04/09/2026 17:58 utc 27,3 53 17,1 10,4 124 931,7 0
04/09/2026 18:00 utc 27,3 54 17 10,7 130 931,7 0
04/09/2026 18:02 utc 27,3 54 17 12,1 141 931,7 0
04/09/2026 18:04 utc 27,3 54 17,1 11,1 149 931,7 0
04/09/2026 18:06 utc 27,3 54 17,1 10,5 155 931,7 0
04/09/2026 18:08 utc 27,3 54 17,1 11,2 159 931,7 0
04/09/2026 18:10 utc 27,3 54 17,1 10 164 931,8 0
04/09/2026 18:12 utc 27,4 54 17,2 8,3 186 931,8 0
04/09/2026 18:14 utc 27,5 53 17,2 6,3 202 931,8 0
04/09/2026 18:16 utc 27,5 53 17,1 3,8 180 931,8 0
04/09/2026 18:18 utc 27,5 53 17,1 3,2 189 931,8 0
04/09/2026 18:20 utc 27,5 53 17,1 1,2 135 931,8 0
04/09/2026 18:22 utc 27,4 54 17,2 1,2 194 931,8 0
04/09/2026 18:24 utc 27,4 54 17,1 1,3 161 931,8 0
04/09/2026 18:26 utc 27,3 54 17,1 2,2 168 931,8 0
04/09/2026 18:28 utc 27,2 54 17,1 3,1 219 931,8 0
04/09/2026 18:30 utc 27,2 54 17 3,5 240 931,8 0
04/09/2026 18:32 utc 27,2 54 17,1 4 257 931,8 0
04/09/2026 18:34 utc 27,2 54 17,1 5,8 274 931,8 0
04/09/2026 18:36 utc 27,3 54 17,1 7 276 931,8 0
04/09/2026 18:38 utc 27,4 53 17 7,5 278 931,8 0
04/09/2026 18:40 utc 27,4 53 17,1 8,4 280 931,8 0
04/09/2026 18:42 utc 27,4 53 17 8,2 273 931,9 0
04/09/2026 18:44 utc 27,3 53 16,9 6,6 262 931,9 0
04/09/2026 18:46 utc 27,2 53 16,9 7 257 931,9 0
04/09/2026 18:48 utc 27,1 53 16,8 7,8 259 931,9 0
04/09/2026 18:50 utc 27 54 16,8 9 266 931,9 0
04/09/2026 18:52 utc 27 54 16,9 9,9 269 931,9 0
04/09/2026 18:54 utc 27,1 54 17 10,1 269 931,9 0
04/09/2026 18:56 utc 27,1 54 17,1 9,6 274 931,9 0
04/09/2026 18:58 utc 27,1 54 17 9,4 271 931,9 0
04/09/2026 19:00 utc 27,1 54 17 9,4 262 931,9 0
04/09/2026 19:02 utc 27,1 54 17 9,6 265 931,9 0
04/09/2026 19:04 utc 27,1 54 17 9,5 267 931,9 0
04/09/2026 19:06 utc 27,1 54 17 8,4 266 931,9 0
04/09/2026 19:08 utc 27,1 54 17,1 8,4 266 931,9 0
04/09/2026 19:10 utc 27,1 54 17,1 8,9 259 931,9 0
04/09/2026 19:12 utc 27,1 54 17,1 8,5 259 931,9 0
04/09/2026 19:14 utc 27,1 54 17,1 8,6 260 931,9 0
04/09/2026 19:16 utc 27,1 54 17,1 9,1 260 932 0
04/09/2026 19:18 utc 27,1 54 17 9 261 932 0
04/09/2026 19:20 utc 27 54 17 7,6 255 932 0
04/09/2026 19:22 utc 27 54 17 7,4 264 932,1 0
04/09/2026 19:24 utc 27 54 17 8,4 266 932,1 0
04/09/2026 19:26 utc 27 54 17 8,8 262 932 0
04/09/2026 19:28 utc 27 54 16,9 8,4 254 932,1 0
04/09/2026 19:30 utc 27 54 16,9 7,6 251 932,1 0
04/09/2026 19:32 utc 26,9 54 16,9 7,7 264 932,1 0
04/09/2026 19:34 utc 26,9 55 16,9 8,9 266 932,1 0
04/09/2026 19:36 utc 26,9 55 17 10,4 265 932,1 0
04/09/2026 19:38 utc 26,9 54 16,9 10,5 258 932,1 0
04/09/2026 19:40 utc 26,8 54 16,8 10,4 255 932,1 0
04/09/2026 19:42 utc 26,8 55 16,8 10,1 254 932,1 0
04/09/2026 19:44 utc 26,7 55 16,8 9,6 251 932,2 0
04/09/2026 19:46 utc 26,7 55 16,8 8,9 255 932,2 0
04/09/2026 19:48 utc 26,7 55 16,8 9 261 932,2 0
04/09/2026 19:50 utc 26,7 55 16,8 9,9 255 932,2 0
04/09/2026 19:52 utc 26,7 55 16,8 10,2 251 932,2 0
04/09/2026 19:54 utc 26,7 55 16,8 9,4 256 932,2 0
04/09/2026 19:56 utc 26,7 55 16,8 9 264 932,3 0
04/09/2026 19:58 utc 26,7 54 16,8 9,9 264 932,3 0
04/09/2026 20:00 utc 26,7 54 16,7 11,2 263 932,3 0
04/09/2026 20:02 utc 26,6 55 16,7 11 253 932,3 0
04/09/2026 20:04 utc 26,5 55 16,8 10,6 251 932,3 0
04/09/2026 20:06 utc 26,4 55 16,7 10,9 258 932,3 0
04/09/2026 20:08 utc 26,4 56 16,8 11,7 264 932,3 0
04/09/2026 20:10 utc 26,5 57 17,2 11,6 260 932,3 0
04/09/2026 20:12 utc 26,6 57 17,4 10 259 932,4 0
04/09/2026 20:14 utc 26,7 57 17,5 9,2 263 932,4 0
04/09/2026 20:16 utc 26,8 57 17,6 8,5 262 932,4 0
04/09/2026 20:18 utc 26,8 57 17,7 9,1 257 932,4 0
04/09/2026 20:20 utc 27 57 17,6 8,6 262 932,5 0
04/09/2026 20:22 utc 27,2 56 17,7 8,3 275 932,5 0
04/09/2026 20:24 utc 27,4 55 17,6 7,8 277 932,5 0
04/09/2026 20:26 utc 27,3 55 17,6 7,5 270 932,5 0
04/09/2026 20:28 utc 27,2 56 17,6 7,6 260 932,5 0
04/09/2026 20:30 utc 27,1 56 17,6 8,1 261 932,5 0
04/09/2026 20:32 utc 27,1 56 17,6 9 269 932,5 0
04/09/2026 20:34 utc 27,1 56 17,6 9,2 269 932,5 0
04/09/2026 20:36 utc 27 56 17,5 9,9 264 932,5 0
04/09/2026 20:38 utc 27 56 17,5 9,6 263 932,5 0
04/09/2026 20:40 utc 27 56 17,5 7,8 266 932,5 0
04/09/2026 20:42 utc 27,1 56 17,6 6 270 932,6 0
04/09/2026 20:44 utc 27,1 56 17,6 4,8 268 932,6 0
04/09/2026 20:46 utc 27,1 56 17,6 4,5 269 932,5 0
04/09/2026 20:48 utc 27,1 56 17,6 4,6 269 932,5 0
04/09/2026 20:50 utc 27,2 56 17,6 5,1 275 932,5 0
04/09/2026 20:52 utc 27,3 55 17,5 5,4 273 932,5 0
04/09/2026 20:54 utc 27,3 56 17,6 7,3 275 932,5 0
04/09/2026 20:56 utc 27,2 56 17,6 8,9 275 932,5 0
04/09/2026 20:58 utc 27,1 56 17,6 8,6 280 932,5 0
04/09/2026 21:00 utc 27 55 17,3 8 281 932,5 0
04/09/2026 21:02 utc 27 54 17,1 8,5 276 932,5 0
04/09/2026 21:04 utc 27 53 16,6 8,8 271 932,5 0
04/09/2026 21:06 utc 27 53 16,7 8,5 268 932,5 0
04/09/2026 21:08 utc 27 54 16,7 8,5 266 932,5 0
04/09/2026 21:10 utc 26,9 53 16,8 8,8 266 932,5 0
04/09/2026 21:12 utc 26,9 52 16,4 8,8 266 932,5 0
04/09/2026 21:14 utc 26,9 52 16,1 9,1 266 932,5 0
04/09/2026 21:16 utc 27 52 16,3 9,3 262 932,5 0
04/09/2026 21:18 utc 26,9 53 16,4 9,7 259 932,5 0
04/09/2026 21:20 utc 26,9 53 16,5 10,6 262 932,5 0
04/09/2026 21:22 utc 26,9 52 16,2 11,8 264 932,5 0
04/09/2026 21:24 utc 26,9 52 16,1 12,4 264 932,4 0
04/09/2026 21:26 utc 26,8 53 16,4 12 263 932,4 0
04/09/2026 21:28 utc 26,7 50 15,8 11,6 260 932,4 0
04/09/2026 21:30 utc 26,7 50 15,4 10,4 255 932,4 0
04/09/2026 21:32 utc 26,7 51 15,4 9,8 254 932,4 0
04/09/2026 21:34 utc 26,7 52 16 9,3 256 932,4 0
04/09/2026 21:36 utc 26,6 51 15,8 8,7 255 932,5 0
04/09/2026 21:38 utc 26,6 52 15,8 8,5 249 932,4 0
04/09/2026 21:40 utc 26,5 53 15,9 8,3 249 932,4 0
04/09/2026 21:42 utc 26,5 55 16,3 8,1 256 932,5 0
04/09/2026 21:44 utc 26,5 53 16,6 8 259 932,5 0
04/09/2026 21:46 utc 26,5 51 15,5 7,1 247 932,4 0
04/09/2026 21:48 utc 26,5 49 15,4 7,3 252 932,4 0
04/09/2026 21:50 utc 26,5 50 14,7 5,9 244 932,4 0
04/09/2026 21:52 utc 26,7 51 15,8 5 253 932,4 0
04/09/2026 21:54 utc 26,9 51 15,8 5,1 244 932,5 0
04/09/2026 21:56 utc 26,9 50 15,9 6,8 254 932,5 0
04/09/2026 21:58 utc 26,8 47 14,8 7,3 253 932,5 0
04/09/2026 22:00 utc 26,7 47 14,7 8,6 260 932,4 0
04/09/2026 22:02 utc 26,7 48 14,3 8,8 261 932,5 0
04/09/2026 22:04 utc 26,6 49 15 7,5 257 932,4 0
04/09/2026 22:06 utc 26,5 51 15,3 6,3 251 932,4 0
04/09/2026 22:08 utc 26,5 50 15,3 5,2 240 932,4 0
04/09/2026 22:10 utc 26,7 49 15,2 4,3 245 932,5 0
04/09/2026 22:12 utc 26,9 50 15,2 3,2 256 932,5 0
04/09/2026 22:14 utc 26,9 50 15,7 2,1 2 932,5 0
04/09/2026 22:16 utc 26,9 51 15,8 2,9 90 932,5 0
04/09/2026 22:18 utc 26,8 51 15,7 3,6 66 932,5 0
04/09/2026 22:20 utc 26,7 51 15,6 4,2 51 932,5 0
04/09/2026 22:22 utc 26,7 51 15,6 4,2 32 932,5 0
04/09/2026 22:24 utc 26,7 51 15,7 4,8 33 932,5 0
04/09/2026 22:26 utc 26,7 51 15,7 5,6 43 932,5 0
04/09/2026 22:28 utc 26,7 51 15,7 4,7 74 932,6 0
04/09/2026 22:30 utc 26,6 52 15,6 6,7 126 932,5 0
04/09/2026 22:32 utc 26,4 56 16,5 10,3 138 932,5 0
04/09/2026 22:34 utc 26,1 57 17 12,7 135 932,5 0
04/09/2026 22:36 utc 25,9 58 17 10,1 133 932,6 0
04/09/2026 22:38 utc 26 58 17 7,2 140 932,6 0
04/09/2026 22:40 utc 26,1 57 17 7,2 140 932,5 0
04/09/2026 22:42 utc 26,3 57 17,1 5,7 136 932,6 0
04/09/2026 22:44 utc 26,4 57 17 6,2 146 932,6 0
04/09/2026 22:46 utc 26,5 56 17,1 6 159 932,6 0
04/09/2026 22:48 utc 26,6 56 17,2 6,4 158 932,6 0
04/09/2026 22:50 utc 26,7 56 17,2 7,5 156 932,6 0
04/09/2026 22:52 utc 26,5 56 17,2 6,7 160 932,6 0
04/09/2026 22:54 utc 26,3 57 17,2 6 159 932,6 0
04/09/2026 22:56 utc 26,1 58 17,1 4 153 932,6 0
04/09/2026 22:58 utc 25,9 58 17 4,4 151 932,6 0
04/09/2026 23:00 utc 25,8 58 17,1 3,7 134 932,7 0
04/09/2026 23:02 utc 25,8 59 17 4,2 141 932,6 0
04/09/2026 23:04 utc 25,7 59 17 3,6 170 932,7 0
04/09/2026 23:06 utc 25,7 59 17 4,7 175 932,8 0
04/09/2026 23:08 utc 25,7 58 17 4,7 205 932,8 0
04/09/2026 23:10 utc 25,7 58 16,7 4,5 200 932,8 0
04/09/2026 23:12 utc 25,7 56 16,7 4,4 223 932,8 0
04/09/2026 23:14 utc 25,7 55 16,1 4,9 251 932,8 0
04/09/2026 23:16 utc 25,7 55 15,8 5,6 263 932,8 0
04/09/2026 23:18 utc 25,7 56 16,1 5,5 258 932,8 0
04/09/2026 23:20 utc 25,8 56 16,2 5,1 246 932,8 0
04/09/2026 23:22 utc 25,8 56 16,4 4,7 245 932,8 0
04/09/2026 23:24 utc 25,9 56 16,4 4,6 259 932,9 0
04/09/2026 23:26 utc 25,9 54 16,3 5,3 274 932,9 0
04/09/2026 23:28 utc 26 51 15,2 5,6 266 932,9 0
04/09/2026 23:30 utc 26 53 15,3 5,3 251 932,8 0
04/09/2026 23:32 utc 26,1 53 15,8 5,8 253 932,8 0
04/09/2026 23:34 utc 26,1 53 15,9 5,5 249 932,8 0
04/09/2026 23:36 utc 26,1 53 15,9 5,3 260 932,8 0
04/09/2026 23:38 utc 26,2 51 15,9 5,6 265 932,8 0
04/09/2026 23:40 utc 26,1 47 14,4 6,3 268 932,9 0
04/09/2026 23:42 utc 26,2 47 14 6,7 266 932,8 0
04/09/2026 23:44 utc 26,2 47 14,1 7,6 269 932,8 0
04/09/2026 23:46 utc 26,3 45 13,5 8,4 271 932,8 0
04/09/2026 23:48 utc 26,3 44 13,2 8,4 271 932,8 0
04/09/2026 23:50 utc 26,4 45 13,2 7,6 268 932,8 0
04/09/2026 23:52 utc 26,1 51 14,3 9,3 268 932,8 0
04/09/2026 23:54 utc 25,6 47 15 10,5 270 932,8 0
04/09/2026 23:56 utc 25,3 45 12,4 10,5 269 932,8 0
04/09/2026 23:58 utc 25,3 43 12,6 12,1 271 932,8 0
05/09/2026 00:00 utc 25,3 41 11 12,3 275 932,8 0
05/09/2026 00:02 utc 25,4 42 11,3 11,7 277 932,8 0
05/09/2026 00:04 utc 25,4 43 11,8 11,2 274 932,8 0
05/09/2026 00:06 utc 25,6 45 12,3 9,2 270 932,7 0
05/09/2026 00:08 utc 25,7 47 13,3 8,8 269 932,7 0
05/09/2026 00:10 utc 25,7 47 13,5 8,8 272 932,7 0
05/09/2026 00:12 utc 25,7 47 13,5 9,1 274 932,7 0
05/09/2026 00:14 utc 25,5 44 13,1 10,1 271 932,6 0
05/09/2026 00:16 utc 25,5 43 12,2 11 269 932,6 0
05/09/2026 00:18 utc 25,5 42 12 12,2 267 932,6 0
05/09/2026 00:20 utc 25,6 39 11 13,1 263 932,6 0
05/09/2026 00:22 utc 25,6 38 9,9 13,7 265 932,7 0
05/09/2026 00:24 utc 25,7 40 10,9 13,8 264 932,7 0
05/09/2026 00:26 utc 25,8 41 11,1 12,6 262 932,6 0
05/09/2026 00:28 utc 25,7 40 11,3 12,5 260 932,6 0
05/09/2026 00:30 utc 25,8 38 10,8 11,9 258 932,6 0
05/09/2026 00:32 utc 25,8 41 10,8 10,7 260 932,6 0
05/09/2026 00:34 utc 25,9 44 12,2 11,2 265 932,6 0
05/09/2026 00:36 utc 25,8 45 13,3 12 265 932,6 0
05/09/2026 00:38 utc 25,8 45 12,7 12,4 269 932,6 0
05/09/2026 00:40 utc 25,9 44 13 13,1 268 932,6 0
05/09/2026 00:42 utc 25,9 42 12,3 13,3 267 932,6 0
05/09/2026 00:44 utc 26 41 11,8 13,5 269 932,6 0
05/09/2026 00:46 utc 26 39 11,5 13,9 268 932,6 0
05/09/2026 00:48 utc 26,1 39 10,8 13,8 269 932,6 0
05/09/2026 00:50 utc 26,1 37 10,6 13,4 269 932,6 0
05/09/2026 00:52 utc 26,2 38 10,6 12,2 267 932,6 0
05/09/2026 00:54 utc 26,2 37 10,6 12,4 263 932,6 0
05/09/2026 00:56 utc 26,1 37 10,5 12,3 259 932,6 0
05/09/2026 00:58 utc 25,9 37 10 12,5 260 932,6 0
05/09/2026 01:00 utc 25,9 39 10,3 12,9 263 932,6 0
05/09/2026 01:02 utc 25,9 39 10,8 12,8 262 932,6 0
05/09/2026 01:04 utc 25,9 40 11 13,4 261 932,6 0
05/09/2026 01:06 utc 25,9 39 11,4 13,8 257 932,6 0
05/09/2026 01:08 utc 25,8 37 10,2 13,9 255 932,6 0
05/09/2026 01:10 utc 25,8 38 9,8 13,8 253 932,6 0
05/09/2026 01:12 utc 25,8 40 11,1 14,3 256 932,5 0
05/09/2026 01:14 utc 25,7 38 10,8 15,1 258 932,5 0
05/09/2026 01:16 utc 25,7 37 10 15,5 259 932,5 0
05/09/2026 01:18 utc 25,7 38 10 16 261 932,5 0
05/09/2026 01:20 utc 25,8 39 10,4 15 261 932,5 0
05/09/2026 01:22 utc 25,8 38 10,5 14 260 932,5 0
05/09/2026 01:24 utc 25,7 39 10,5 14,1 263 932,5 0
05/09/2026 01:26 utc 25,8 39 10,5 13 267 932,4 0
05/09/2026 01:28 utc 25,9 41 11,3 13,1 268 932,4 0
05/09/2026 01:30 utc 26 40 11,6 13,5 267 932,4 0
05/09/2026 01:32 utc 26,1 39 11 14,3 266 932,4 0
05/09/2026 01:34 utc 26,3 38 10,8 15,4 264 932,4 0
05/09/2026 01:36 utc 26,3 38 10,9 16,8 263 932,4 0
05/09/2026 01:38 utc 26,3 39 11,2 17 262 932,4 0
05/09/2026 01:40 utc 26,1 40 11,4 16,9 260 932,4 0
05/09/2026 01:42 utc 25,9 41 11,6 15,8 258 932,4 0
05/09/2026 01:44 utc 25,6 42 11,8 15,6 256 932,4 0
05/09/2026 01:46 utc 25,5 41 11,6 15,5 260 932,4 0
05/09/2026 01:48 utc 25,7 40 11,2 15,7 263 932,4 0
05/09/2026 01:50 utc 25,9 40 11,2 15,2 267 932,4 0
05/09/2026 01:52 utc 26 41 11,6 14,4 268 932,4 0
05/09/2026 01:54 utc 26,1 41 11,6 13,7 264 932,4 0
05/09/2026 01:56 utc 26,1 40 11,6 13,3 263 932,4 0
05/09/2026 01:58 utc 26,1 40 11,4 13,6 260 932,5 0
05/09/2026 02:00 utc 26,1 41 11,5 13,3 259 932,4 0
05/09/2026 02:02 utc 26 41 11,7 13 263 932,5 0
05/09/2026 02:04 utc 26 41 11,6 14,1 266 932,4 0
05/09/2026 02:06 utc 26,1 41 12 14,2 271 932,4 0
05/09/2026 02:08 utc 26,2 41 11,7 14,6 275 932,4 0
05/09/2026 02:10 utc 26,4 40 11,9 14 276 932,4 0
05/09/2026 02:12 utc 26,5 41 12 13,1 277 932,4 0
05/09/2026 02:14 utc 26,4 42 12,3 13,1 274 932,4 0
05/09/2026 02:16 utc 26,3 41 12,1 12,3 268 932,4 0
05/09/2026 02:18 utc 26,3 42 12,3 11,7 262 932,4 0
05/09/2026 02:20 utc 26,1 42 12,1 12,3 271 932,4 0
05/09/2026 02:22 utc 26,1 42 12,2 12,9 273 932,4 0
05/09/2026 02:24 utc 26,1 41 12,1 13,3 272 932,4 0
05/09/2026 02:26 utc 26 41 12 13,7 274 932,4 0
05/09/2026 02:28 utc 25,9 40 11,7 14,3 273 932,4 0
05/09/2026 02:30 utc 26 40 11,3 14,5 273 932,4 0
05/09/2026 02:32 utc 26,2 39 11,2 14,9 273 932,4 0
05/09/2026 02:34 utc 26,3 39 11,1 14,2 270 932,4 0
05/09/2026 02:36 utc 26,1 38 10,9 14,5 270 932,4 0
05/09/2026 02:38 utc 26,1 38 10,6 13,8 269 932,4 0
05/09/2026 02:40 utc 26 40 11,3 13,3 266 932,4 0
05/09/2026 02:42 utc 25,9 41 11,6 12,5 264 932,4 0
05/09/2026 02:44 utc 25,8 41 11,6 14,1 269 932,3 0
05/09/2026 02:46 utc 25,8 40 11,5 13,1 268 932,4 0
05/09/2026 02:48 utc 25,8 41 11,4 14,1 273 932,4 0
05/09/2026 02:50 utc 25,8 41 11,6 13,5 266 932,4 0
05/09/2026 02:52 utc 25,8 40 11,4 12,5 262 932,4 0
05/09/2026 02:54 utc 25,7 40 11,2 13,1 262 932,4 0
05/09/2026 02:56 utc 25,6 39 10,9 12,7 263 932,4 0
05/09/2026 02:58 utc 25,7 39 10,8 12 262 932,4 0
05/09/2026 03:00 utc 25,7 39 10,9 12,9 266 932,4 0
05/09/2026 03:02 utc 25,7 39 10,7 11,4 258 932,4 0
05/09/2026 03:04 utc 25,6 39 10,5 12,8 261 932,4 0
05/09/2026 03:06 utc 25,5 39 10,5 12,7 261 932,4 0
05/09/2026 03:08 utc 25,6 39 10,5 11,3 257 932,4 0
05/09/2026 03:10 utc 25,5 39 10,6 11,2 252 932,4 0
05/09/2026 03:12 utc 25,4 39 10,4 10,8 248 932,4 0
05/09/2026 03:14 utc 25,3 38 10,3 11,6 250 932,4 0
05/09/2026 03:16 utc 25,4 37 10 12,7 247 932,4 0
05/09/2026 03:18 utc 25,4 37 9,6 12,2 251 932,4 0
05/09/2026 03:20 utc 25,5 37 9,7 12,2 257 932,4 0
05/09/2026 03:22 utc 25,8 37 9,8 11,7 260 932,4 0
05/09/2026 03:24 utc 25,8 36 9,7 12,8 263 932,4 0
05/09/2026 03:26 utc 25,8 36 9,5 13,9 262 932,4 0
05/09/2026 03:28 utc 25,7 36 9,5 14,5 263 932,4 0
05/09/2026 03:30 utc 25,7 35 9,3 14,1 260 932,4 0
05/09/2026 03:32 utc 25,7 35 9,3 16 262 932,4 0
05/09/2026 03:34 utc 25,7 35 9,2 15,9 262 932,4 0
05/09/2026 03:36 utc 25,7 35 9,2 16,6 263 932,4 0
05/09/2026 03:38 utc 25,8 35 9,1 16,7 264 932,4 0
05/09/2026 03:40 utc 25,8 35 9 16,4 259 932,4 0
05/09/2026 03:42 utc 25,8 34 8,9 16,2 259 932,5 0
05/09/2026 03:44 utc 25,9 34 8,8 15,4 255 932,5 0
05/09/2026 03:46 utc 25,8 35 9,1 14,6 259 932,5 0
05/09/2026 03:48 utc 25,7 35 9 14,2 260 932,5 0
05/09/2026 03:50 utc 25,8 35 9 12,9 254 932,4 0
05/09/2026 03:52 utc 25,7 35 9 13,9 258 932,4 0
05/09/2026 03:54 utc 25,7 34 8,9 13,7 256 932,4 0
05/09/2026 03:56 utc 25,8 34 8,8 13,5 255 932,4 0
05/09/2026 03:58 utc 25,7 35 8,8 13,7 253 932,4 0
05/09/2026 04:00 utc 25,6 35 8,9 14,8 253 932,4 0
05/09/2026 04:02 utc 25,6 33 8,6 14,3 250 932,4 0
05/09/2026 04:04 utc 25,6 33 8,2 15,2 256 932,4 0
05/09/2026 04:06 utc 25,7 33 8 16,1 256 932,4 0
05/09/2026 04:08 utc 25,8 33 8,1 15,7 257 932,4 0
05/09/2026 04:10 utc 25,8 32 8 15,7 255 932,4 0
05/09/2026 04:12 utc 25,7 32 7,9 15,4 257 932,4 0
05/09/2026 04:14 utc 25,7 32 7,8 15,5 259 932,4 0
05/09/2026 04:16 utc 25,8 32 7,8 15 258 932,4 0
05/09/2026 04:18 utc 25,8 31 7,7 16,7 260 932,4 0
05/09/2026 04:20 utc 26 31 7,6 17,2 263 932,4 0
05/09/2026 04:22 utc 26,2 30 7,4 17,9 265 932,4 0
05/09/2026 04:24 utc 26,3 31 7,5 16,5 260 932,4 0
05/09/2026 04:26 utc 26,1 31 7,7 15,5 259 932,4 0
05/09/2026 04:28 utc 26 32 7,8 14,4 258 932,4 0
05/09/2026 04:30 utc 25,8 31 7,9 16,2 258 932,4 0
05/09/2026 04:32 utc 26 31 7,3 15,9 260 932,4 0
05/09/2026 04:34 utc 26,1 31 7,4 15,1 259 932,4 0
05/09/2026 04:36 utc 26,1 31 7,7 15,2 257 932,4 0
05/09/2026 04:38 utc 25,9 32 7,7 16,8 259 932,4 0
05/09/2026 04:40 utc 25,8 32 7,7 17,6 260 932,4 0
05/09/2026 04:42 utc 25,9 32 7,9 17,8 259 932,4 0
05/09/2026 04:44 utc 25,8 32 7,8 17,6 258 932,4 0
05/09/2026 04:46 utc 25,7 32 7,9 16,6 257 932,4 0
05/09/2026 04:48 utc 25,7 32 7,9 16,6 259 932,4 0
05/09/2026 04:50 utc 25,7 32 7,9 16,9 262 932,5 0
05/09/2026 04:52 utc 25,8 32 7,8 16,9 261 932,5 0
05/09/2026 04:54 utc 25,8 32 7,9 16,7 263 932,5 0
05/09/2026 04:56 utc 25,8 32 7,8 17,4 261 932,5 0
05/09/2026 04:58 utc 25,9 32 7,7 16,9 257 932,5 0
05/09/2026 05:00 utc 25,8 32 7,9 15,5 255 932,5 0
05/09/2026 05:02 utc 25,6 32 8 16,3 255 932,5 0
05/09/2026 05:04 utc 25,7 32 7,7 15 254 932,5 0
05/09/2026 05:06 utc 25,8 32 7,6 14,7 257 932,5 0
05/09/2026 05:08 utc 25,9 32 7,8 13,8 258 932,5 0
05/09/2026 05:10 utc 25,8 32 7,9 13,4 253 932,5 0
05/09/2026 05:12 utc 25,6 32 7,8 13,7 247 932,5 0
05/09/2026 05:14 utc 25,6 32 7,8 13,6 250 932,5 0
05/09/2026 05:16 utc 25,5 33 7,8 12,4 251 932,5 0
05/09/2026 05:18 utc 25,5 33 8 14 249 932,5 0
05/09/2026 05:20 utc 25,3 33 8 14 251 932,5 0
05/09/2026 05:22 utc 25,3 33 7,9 14,4 256 932,5 0
05/09/2026 05:24 utc 25,3 33 7,9 14,7 254 932,5 0
05/09/2026 05:26 utc 25,2 33 7,9 14,7 248 932,5 0
05/09/2026 05:28 utc 25,1 33 7,9 14,8 250 932,5 0